[TLELIST] Archives

 

[list_settings.list_name] Current TLEs

February 15th 2021 PST

HST 1 20580U 90037B 21045.69128458 .00000479 00000-0 18075-4 0 9994 2 20580 28.4691 157.3109 0002632 175.8354 326.8535 15.09555517492526 ISS (ZARYA) 1 25544U 98067A 21046.24342611 .00000155 00000-0 10972-4 0 9990 2 25544 51.6432 225.8705 0002673 17.3857 153.2448 15.48961734269698 CXO 1 25867U 99040B 21046.46303314 .00000445 00000-0 00000-0 0 9990 2 25867 57.8070 259.7288 8126919 226.3530 0.4940 0.37803737 9986 ____________________________________________________________________ These 2-Line ...Continue Reading

[list_settings.list_name] Current TLEs

February 14th 2021 PST

HST 1 20580U 90037B 21045.03388699 .00000505 00000-0 19644-4 0 9990 2 20580 28.4691 161.6602 0002653 168.8191 354.2274 15.09555303492591 ISS (ZARYA) 1 25544U 98067A 21045.38657216 -.00000180 00000-0 48881-5 0 9994 2 25544 51.6432 230.1082 0002793 12.8653 56.5670 15.48959405269562 CXO 1 25867U 99040B 21046.46303314 .00000445 00000-0 00000-0 0 9990 2 25867 57.8070 259.7288 8126919 226.3530 0.4940 0.37803737 9986 ____________________________________________________________________ These 2-Line ...Continue Reading

[list_settings.list_name] Current TLEs

February 13th 2021 PST

HST 1 20580U 90037B 21043.77585823 .00000435 00000-0 15390-4 0 9993 2 20580 28.4690 169.9832 0002705 155.5330 357.3318 15.09554130492233 ISS (ZARYA) 1 25544U 98067A 21044.24238633 .00000914 00000-0 24782-4 0 9993 2 25544 51.6437 235.7688 0002867 6.5121 158.4468 15.48962733269387 CXO 1 25867U 99040B 21046.46283319 .00000445 00000-0 00000-0 0 9992 2 25867 57.8070 259.7287 8126934 226.3531 0.4664 0.37803040 9972 ____________________________________________________________________ These 2-Line ...Continue Reading

[list_settings.list_name] Current TLEs

February 12th 2021 PST

HST 1 20580U 90037B 21042.71389380 .00000441 00000-0 15757-4 0 9990 2 20580 28.4689 177.0091 0002745 144.4413 345.8497 15.09553572492072 ISS (ZARYA) 1 25544U 98067A 21043.27289556 .00003336 00000-0 68749-4 0 9997 2 25544 51.6440 240.5646 0002850 6.0842 149.2030 15.48970429269234 CXO 1 25867U 99040B 21043.81869178 .00000445 00000-0 00000-0 0 9991 2 25867 57.8344 259.7912 8121797 226.3805 0.4780 0.37806780 9969 ____________________________________________________________________ These 2-Line ...Continue Reading

[list_settings.list_name] Current TLEs

February 11th 2021 PST

HST 1 20580U 90037B 21041.79138556 .00000429 00000-0 15045-4 0 9990 2 20580 28.4688 183.1123 0002776 134.9419 12.1389 15.09552947491932 ISS (ZARYA) 1 25544U 98067A 21042.30870520 .00003041 00000-0 63421-4 0 9992 2 25544 51.6440 245.3345 0002839 359.6306 175.5159 15.48962705269087 CXO 1 25867U 99040B 21043.81869178 .00000445 00000-0 00000-0 0 9991 2 25867 57.8344 259.7912 8121797 226.3805 0.4780 0.37806780 9969 ____________________________________________________________________ These 2-Line ...Continue Reading

[list_settings.list_name] Current TLEs

February 10th 2021 PST

HST 1 20580U 90037B 21040.79913226 .00000483 00000-0 18270-4 0 9997 2 20580 28.4687 189.6769 0002804 124.8441 19.2558 15.09552641491783 ISS (ZARYA) 1 25544U 98067A 21040.93620630 .00000791 00000-0 22545-4 0 9995 2 25544 51.6439 252.1222 0002708 354.7355 81.9453 15.48944724268874 CXO 1 25867U 99040B 21043.81763789 .00000445 00000-0 00000-0 0 9992 2 25867 57.8343 259.7912 8121790 226.3807 0.3345 0.37806548 9961 ____________________________________________________________________ These 2-Line ...Continue Reading

[list_settings.list_name] Current TLEs

February 9th 2021 PST

HST 1 20580U 90037B 21039.80665406 .00000474 00000-0 17780-4 0 9996 2 20580 28.4686 196.2431 0002824 114.8896 25.0060 15.09551918491630 ISS (ZARYA) 1 25544U 98067A 21039.89161926 -.00000043 00000-0 73771-5 0 9995 2 25544 51.6440 257.2891 0002486 351.4127 16.5936 15.48938694268710 CXO 1 25867U 99040B 21041.17568934 .00000431 00000-0 00000-0 0 9999 2 25867 57.8849 259.8750 8117514 226.3999 0.6302 0.37806548 9959 ____________________________________________________________________ These 2-Line ...Continue Reading

[list_settings.list_name] Current TLEs

February 8th 2021 PST

HST 1 20580U 90037B 21038.74632987 .00000613 00000-0 26193-4 0 9999 2 20580 28.4686 203.2582 0002838 104.2051 22.0572 15.09552000491646 ISS (ZARYA) 1 25544U 98067A 21039.20963348 -.00000054 00000-0 71880-5 0 9999 2 25544 51.6445 260.6624 0002425 347.9541 174.6692 15.48938215268602 CXO 1 25867U 99040B 21041.17568934 .00000431 00000-0 00000-0 0 9999 2 25867 57.8849 259.8750 8117514 226.3999 0.6302 0.37806548 9959 ____________________________________________________________________ These 2-Line ...Continue Reading

[list_settings.list_name] Current TLEs

February 7th 2021 PST

HST 1 20580U 90037B 21037.68399883 .00000444 00000-0 15918-4 0 9991 2 20580 28.4685 210.2866 0002845 93.6303 8.0710 15.09550302491323 ISS (ZARYA) 1 25544U 98067A 21038.10119243 -.00000359 00000-0 16302-5 0 9990 2 25544 51.6455 266.1427 0002516 344.2732 113.4076 15.48936439268432 CXO 1 25867U 99040B 21041.17357138 .00000431 00000-0 00000+0 0 9990 2 25867 57.8851 259.8751 8117503 226.3999 0.3419 0.37806820 21099 ____________________________________________________________________ These 2-Line ...Continue Reading

[list_settings.list_name] Current TLEs

February 6th 2021 PST

HST 1 20580U 90037B 21036.80950574 .00000514 00000-0 20171-4 0 9999 2 20580 28.4685 216.0724 0002846 84.7261 295.2261 15.09550200491198 ISS (ZARYA) 1 25544U 98067A 21037.40475744 -.00000320 00000-0 23485-5 0 9991 2 25544 51.6459 269.5864 0002512 341.7454 189.9323 15.48936377268329 CXO 1 25867U 99040B 21038.53072403 .00000397 00000-0 00000+0 0 9996 2 25867 57.9449 259.9569 8112248 226.4319 0.5147 0.37801825 21088 ____________________________________________________________________ These 2-Line ...Continue Reading
  • This mailing list is a public mailing list - anyone may join or leave, at any time.
  • This mailing list is announce-only.

International Space Station (ISS) / Hubble Space Telescope (HST) / Chandra X-Ray Observatory Orbital Data via EMAIL

Privacy Policy:

Private list